Find Haishao-1

NORAD ID: 62190 Int'l Des: 2024-228 Owner: XXYW Country: CN operational
LEOCIRCULAR

Current View

Loading 3D Globe...

About Haishao-1

Description loading...

Upcoming Passes

Passes for default location (London). Set your location on the main map for personalized predictions.

Altitude History

Loading altitude history...

Two-Line Element Set

1 62190U 24228A 26151.21479451 .00042105 00000-0 41677-3 0 9994
2 62190 42.9795 106.8090 0001761 242.9651 117.1035 15.65117833 84925
Epoch: May 31, 2026 • Age: 7 hours

Current Status

Altitude 375.9 km
Velocity 7.69 km/s
Sub-Earth Point 39.24°N, 159.15°E
Launch Date Dec 4, 2024
Age 1.4 years
Type other

Technical Details

Classification Payload
Mass 400.00 kg
Dry Mass 400.00 kg
Total Mass 400.00 kg
Length 1.00 m
Diameter 1.00 m
Span 6.00 m
Shape Box+3 pan
Manufacturer ZHWK/IMICAS
Bus Type ZK1
Phase Status In Orbit
Owner/State XXYW/CN

Most Searched